Home   Weather   Kowloon   Past weeks

Flag for Hong Kong Past Weather in Kowloon, Hong Kong — Yesterday and Last 2 Weeks

Now
72 °F

Passing clouds.


Feels Like: 74 °F
Forecast: 69 / 78 °F
Wind: 6 mph from Northeast

Location: National Airport

Current Time: Dec 4, 2016 at 7:56:10 am

Latest Report: Dec 4, 2016 at 7:30 am


Visibility: 4 mi

Pressure: 30.09 "Hg

Humidity: 73%

Dew Point: 63 °F

Location of KowloonLocation

Past Weather in Kowloon — Graph

°F

Kowloon Temperature Yesterday

Maximum temperature yesterday: 75 °F (at 2:30 pm)
Minimum temperature yesterday: 68 °F (at 4:30 am)
Average temperature yesterday: 71 °F

High & Low Weather Summary for the Past Weeks

 TemperatureHumidityPressure
High86 °F (Nov 19, 1:00 pm)94% (Nov 22, 4:30 am)30.27 "Hg (Nov 22, 4:30 am)
Low55 °F (Nov 26, 8:30 pm)44% (Nov 28, 2:30 pm)29.83 "Hg (Nov 20, 3:00 pm)
Average70 °F70%30.06 "Hg
* Reported Nov 19 6:00 am — Dec 4 6:30 am, Kowloon, Weather by CustomWeather, © 2016

Note: Actual official high and low records may vary slightly from our data, if they occured in-between our weather recording intervals... More about our weather records

Advertising

Kowloon Weather History for the Previous 24 Hours

Scroll right to see more
 ConditionsComfort  
Time TempWeatherWind HumidityBarometerVisibility
6:30 am
Sun, Dec 4
70 °FPassing clouds.3 mph78%30.09 "Hg5 mi
6:00 am70 °FPassing clouds.5 mph78%30.09 "Hg5 mi
5:30 am72 °FPassing clouds.6 mph73%30.09 "Hg5 mi
5:00 am70 °FPassing clouds.10 mph78%30.09 "Hg5 mi
4:30 am72 °FPassing clouds.9 mph69%30.09 "Hg5 mi
4:00 am70 °FPassing clouds.8 mph78%30.09 "Hg5 mi
3:30 am72 °FPassing clouds.2 mph73%30.09 "Hg5 mi
3:00 am72 °FPassing clouds.2 mph73%30.09 "Hg5 mi
2:30 am72 °FPassing clouds.1 mph73%30.09 "Hg6 mi
2:00 am72 °FPassing clouds.5 mph69%30.09 "Hg6 mi
1:30 am72 °FPassing clouds.3 mph69%30.09 "Hg5 mi
1:00 am72 °FPassing clouds.2 mph69%30.12 "Hg6 mi
12:30 am72 °FPassing clouds.5 mph69%30.12 "Hg6 mi
12:00 am72 °FPassing clouds.5 mph69%30.12 "Hg6 mi
11:30 pm
Sat, Dec 3
72 °FPassing clouds.3 mph69%30.12 "Hg6 mi
11:00 pm72 °FPassing clouds.6 mph65%30.12 "Hg6 mi
10:30 pm72 °FPassing clouds.6 mph65%30.12 "Hg6 mi
10:00 pm72 °FPassing clouds.9 mph65%30.12 "HgN/A
9:30 pm73 °FPassing clouds.8 mph57%30.12 "Hg6 mi
9:00 pm73 °FPassing clouds.8 mph61%30.12 "Hg6 mi
8:30 pm73 °FPassing clouds.8 mph61%30.12 "Hg6 mi
8:00 pm73 °FPassing clouds.8 mph61%30.12 "Hg6 mi
7:30 pm73 °FPassing clouds.8 mph65%30.12 "Hg6 mi
7:00 pm73 °FPassing clouds.9 mph65%30.09 "Hg6 mi
6:30 pm73 °FPassing clouds.13 mph65%30.09 "Hg6 mi
6:00 pm73 °FPassing clouds.12 mph65%30.09 "Hg5 mi
5:30 pm73 °FPassing clouds.12 mph65%30.09 "Hg5 mi
5:00 pm73 °FPassing clouds.12 mph65%30.09 "Hg4 mi
4:30 pm73 °FPassing clouds.12 mph65%30.07 "Hg4 mi
4:00 pm73 °FPassing clouds.13 mph69%30.09 "Hg4 mi
3:30 pm73 °FPassing clouds.10 mph65%30.09 "Hg4 mi
3:00 pm75 °FPassing clouds.6 mph57%30.09 "Hg4 mi
2:30 pm75 °FPassing clouds.5 mph57%30.07 "Hg5 mi
2:00 pm73 °FPassing clouds.3 mph57%30.09 "Hg6 mi
1:30 pm73 °FPassing clouds.6 mph61%30.09 "Hg6 mi
1:00 pm73 °FPassing clouds.7 mph57%30.12 "Hg6 mi
12:30 pm73 °FPassing clouds.9 mph57%30.12 "Hg6 mi
12:00 pm72 °FPassing clouds.5 mph65%30.15 "Hg5 mi
11:30 am72 °FPassing clouds.8 mph65%30.18 "Hg5 mi
11:00 am72 °FPassing clouds.9 mph65%30.18 "Hg5 mi
10:00 am70 °FPassing clouds.8 mph69%30.21 "Hg5 mi
9:00 am70 °FPassing clouds.9 mph69%30.24 "Hg4 mi
8:30 am68 °FPassing clouds.10 mph73%30.21 "Hg4 mi
8:00 am68 °FPassing clouds.8 mph73%30.21 "Hg4 mi
7:30 am68 °FScattered clouds.7 mph73%30.21 "Hg4 mi
7:00 am68 °FScattered clouds.6 mph73%30.21 "Hg4 mi
Weather by CustomWeather, © 2016

See weather overviewHow to use our weather pages